GW4533 Weather Reports


time (UTC)temp
C
wind
direction
speed
KPH
gust
KPH
rain 1hr
cm
rain 24hr
cm
rain mn
cm
humidity
%
barometer
mb
20260502160336 5 261 0.0 1.6 0.00 0.00 0.00 81 1019.2
20260502152311 3 0 1.6 1.6 0.00 0.00 0.00 82 1018.9
20260502151808 3 96 1.6 1.6 0.00 0.00 0.00 81 1019.0
20260502151305 4 313 1.6 3.2 0.00 0.00 0.00 84 1019.0
20260502150803 3 131 0.0 1.6 0.00 0.00 0.00 84 1018.9
20260502150259 3 280 3.2 3.2 0.00 0.00 0.00 83 1019.0
20260502130647 2 264 0.0 0.0 0.00 0.00 0.00 92 1018.1
20260502130145 2 264 0.0 0.0 0.00 0.00 0.00 92 1018.1
20260502123631 2 265 1.6 4.8 0.00 0.00 0.00 93 1018.1
20260502123127 1 337 0.0 6.4 0.00 0.00 0.00 93 1017.9
20260502122624 1 317 1.6 4.8 0.00 0.00 0.00 93 1017.8
20260502122121 1 284 0.0 4.8 0.00 0.00 0.00 93 1017.9
20260502121619 1 312 0.0 1.6 0.00 0.00 0.00 93 1018.1
20260502121116 1 278 3.2 3.2 0.00 0.00 0.00 92 1017.9
20260502120612 1 1 0.0 1.6 0.00 0.00 0.00 92 1017.8
20260502120109 1 181 3.2 4.8 0.00 0.00 0.00 91 1018.0
20260502115607 1 14 1.6 3.2 0.00 0.00 0.00 91 1018.0
20260502115102 1 294 0.0 1.6 0.00 0.00 0.00 91 1017.9
20260502114559 1 295 3.2 3.2 0.00 0.00 0.00 90 1017.9
20260502114056 1 16 0.0 1.6 0.00 0.00 0.00 90 1018.0
20260502113554 1 271 1.6 1.6 0.00 0.00 0.00 91 1017.9
20260502113052 1 309 1.6 4.8 0.00 0.00 0.00 91 1017.9
20260502112549 0 284 0.0 1.6 0.00 0.00 0.00 92 1017.8
20260502112047 0 25 0.0 3.2 0.00 0.00 0.00 92 1017.7
20260502111544 0 57 0.0 1.6 0.00 0.00 0.00 93 1017.7
20260502111041 0 250 0.0 0.0 0.00 0.00 0.00 93 1017.8
20260502110539 0 300 0.0 1.6 0.00 0.00 0.00 93 1017.4
20260502110036 0 5 0.0 0.0 0.00 0.00 0.00 93 1017.3
20260502105533 0 5 0.0 0.0 0.00 0.00 0.00 93 1017.4
20260502105031 0 5 0.0 0.0 0.00 0.00 0.00 93 1017.3
20260502104528 0 5 0.0 0.0 0.00 0.00 0.00 93 1017.4
20260502104026 0 5 0.0 0.0 0.00 0.00 0.00 93 1017.4
20260502103523 0 5 0.0 0.0 0.00 0.00 0.00 92 1017.4
20260502103021 0 242 0.0 0.0 0.00 0.00 0.00 92 1017.5
20260502102517 0 281 0.0 0.0 0.00 0.00 0.00 92 1017.7
20260502102014 0 243 0.0 0.0 0.00 0.00 0.00 92 1017.7
20260502101512 0 219 0.0 0.0 0.00 0.00 0.00 92 1017.5
20260502101010 0 315 0.0 1.6 0.00 0.00 0.00 93 1017.5
20260502100509 0 290 0.0 3.2 0.00 0.00 0.00 93 1017.3
20260502091443 0 259 0.0 0.0 0.00 0.00 0.00 94 1017.2
20260502090940 1 211 0.0 0.0 0.00 0.00 0.00 94 1017.2
20260502090437 1 231 0.0 0.0 0.00 0.00 0.00 94 1017.1
20260502071331 2 290 0.0 0.0 0.00 0.00 0.00 96 1017.1
20260502070830 2 229 0.0 0.0 0.00 0.00 0.00 96 1017.0
20260502070327 2 224 1.6 3.2 0.00 0.00 0.00 96 1017.0
20260502065826 2 259 0.0 0.0 0.00 0.00 0.00 96 1017.0
20260502065324 2 256 0.0 1.6 0.00 0.00 0.00 96 1017.0
20260502064821 2 245 0.0 0.0 0.00 0.00 0.00 97 1017.0
20260502064319 3 265 0.0 0.0 0.00 0.00 0.00 97 1017.0
20260502063816 3 300 1.6 3.2 0.00 0.00 0.00 97 1017.1
20260502063314 2 284 0.0 0.0 0.00 0.00 0.00 97 1017.2
20260502062811 2 276 0.0 1.6 0.00 0.00 0.00 97 1017.3
20260502062308 2 281 0.0 0.0 0.00 0.00 0.00 97 1017.4
20260502061807 2 333 0.0 0.0 0.00 0.00 0.00 97 1017.3
20260502061304 2 274 0.0 0.0 0.00 0.00 0.00 97 1017.4
20260502060800 2 308 0.0 0.0 0.00 0.00 0.00 97 1017.3
20260502060255 2 287 0.0 0.0 0.00 0.00 0.00 97 1017.4
20260502055753 2 258 0.0 0.0 0.00 0.00 0.00 97 1017.3
20260502055251 2 299 0.0 0.0 0.00 0.00 0.00 96 1017.4
20260502054750 3 299 0.0 0.0 0.00 0.00 0.00 96 1017.5
20260502054247 2 152 0.0 0.0 0.00 0.00 0.00 96 1017.5
20260502053744 2 152 0.0 0.0 0.00 0.00 0.00 96 1017.5
20260502053241 2 153 0.0 0.0 0.00 0.00 0.00 96 1017.5
20260502052739 2 152 0.0 0.0 0.00 0.00 0.00 96 1017.5
20260502052237 2 284 0.0 0.0 0.00 0.00 0.00 96 1017.8
20260502051735 2 210 0.0 0.0 0.00 0.00 0.00 96 1017.7
20260502051233 2 216 0.0 0.0 0.00 0.00 0.00 96 1017.5
20260502050729 2 216 0.0 0.0 0.00 0.00 0.00 95 1017.5
20260502050225 2 216 0.0 0.0 0.00 0.00 0.00 95 1017.7
20260502045723 2 216 0.0 0.0 0.00 0.00 0.00 95 1017.5
20260502045220 2 216 0.0 0.0 0.00 0.00 0.00 95 1017.7
20260502044716 2 216 0.0 0.0 0.00 0.00 0.00 95 1017.5
20260502044212 2 216 0.0 0.0 0.00 0.00 0.00 95 1017.8
20260502043710 2 216 0.0 0.0 0.00 0.00 0.00 94 1017.8
20260502043208 3 216 0.0 0.0 0.00 0.00 0.00 93 1017.8
20260502042707 3 216 0.0 0.0 0.00 0.00 0.00 92 1017.7
20260502042204 3 217 0.0 0.0 0.00 0.00 0.00 93 1017.8
20260502041702 3 217 0.0 0.0 0.00 0.00 0.00 92 1017.8
20260502041159 3 217 0.0 0.0 0.00 0.00 0.00 92 1017.7
20260502040655 3 217 0.0 0.0 0.00 0.00 0.00 92 1018.1
20260502040153 3 217 0.0 1.6 0.13 0.00 0.00 92 1018.1
20260502035649 3 217 0.0 1.6 0.13 0.61 0.61 92 1017.9
20260502035146 3 352 0.0 1.6 0.00 0.58 0.58 92 1018.0
20260502034643 3 359 0.0 1.6 0.00 0.58 0.58 92 1018.2
20260502034142 3 290 0.0 0.0 0.00 0.58 0.58 92 1018.1
20260502033639 3 242 1.6 3.2 0.00 0.58 0.58 92 1017.9
20260502033137 3 276 1.6 1.6 0.00 0.58 0.58 92 1017.9
20260502032632 3 236 0.0 1.6 0.00 0.58 0.58 94 1017.9
20260502032129 3 305 0.0 1.6 0.00 0.58 0.58 94 1018.0
20260502031627 3 265 0.0 0.0 0.00 0.58 0.58 94 1017.7
20260502031125 2 175 0.0 0.0 0.00 0.58 0.58 94 1017.8
20260502030624 3 175 0.0 0.0 0.00 0.58 0.58 94 1017.8
20260502030121 3 175 0.0 0.0 0.00 0.58 0.58 94 1017.5
20260502025618 2 175 0.0 0.0 0.00 0.58 0.58 94 1017.3
20260502025116 3 175 0.0 0.0 0.00 0.58 0.58 93 1017.7
20260502024614 3 175 0.0 0.0 0.00 0.58 0.58 92 1017.4
20260502024112 3 175 0.0 0.0 0.00 0.58 0.58 91 1017.4
20260502023609 3 175 0.0 0.0 0.00 0.58 0.58 89 1017.5
20260502023106 3 175 0.0 0.0 0.00 0.58 0.58 88 1017.5
20260502022603 3 175 0.0 0.0 0.00 0.58 0.58 88 1017.5
20260502022100 4 175 0.0 0.0 0.00 0.58 0.58 87 1017.5
20260502021557 4 175 0.0 0.0 0.00 0.58 0.58 86 1017.4
20260502021054 4 175 0.0 0.0 0.00 0.58 0.58 85 1017.8
20260502020552 5 175 0.0 0.0 0.00 0.58 0.58 85 1017.7
20260502020048 5 175 0.0 0.0 0.00 0.58 0.58 84 1017.5
20260502015546 5 191 0.0 0.0 0.00 0.58 0.58 86 1017.8
20260502015042 4 194 1.6 3.2 0.00 0.58 0.58 88 1017.8
20260502014540 4 353 0.0 0.0 0.00 0.58 0.58 90 1017.5
20260502014037 4 353 0.0 0.0 0.00 0.58 0.58 90 1017.4
20260502013532 4 353 0.0 0.0 0.00 0.58 0.58 90 1017.4
20260502013029 4 353 0.0 0.0 0.00 0.58 0.58 90 1017.3
20260502012526 4 353 0.0 0.0 0.00 0.58 0.58 90 1017.0
20260502012024 4 353 0.0 0.0 0.00 0.58 0.58 89 1017.1
20260502011520 4 353 0.0 0.0 0.00 0.58 0.58 88 1017.1
20260502011016 4 353 0.0 0.0 0.00 0.58 0.58 87 1016.9
20260502010514 5 353 0.0 0.0 0.00 0.58 0.58 86 1016.9
20260502010010 5 353 0.0 0.0 0.00 0.58 0.58 86 1017.0
20260502005508 5 353 0.0 0.0 0.00 0.58 0.58 86 1017.0
20260502005006 5 353 0.0 0.0 0.00 0.58 0.58 85 1017.1
20260502004501 5 353 0.0 0.0 0.00 0.58 0.58 85 1017.0
20260502003958 -17 0.0 0.0 0.00 0.58 0.58 1017.0
20260502003455 -17 0.0 0.0 0.00 0.58 0.58 1016.9
20260502002952 5 353 0.0 0.0 0.00 0.58 0.58 86 1016.9
20260502002449 5 353 0.0 0.0 0.00 0.58 0.58 86 1016.7
20260502001947 -17 0.0 0.0 0.00 0.58 0.58 1016.8
20260502001444 -17 0.0 0.0 0.00 0.58 0.58 1016.7
20260502000941 -17 0.0 0.0 0.00 0.58 0.58 1016.6
20260502000440 -17 0.0 0.0 0.00 0.58 0.58 1016.5
20260501235936 -17 0.0 0.0 0.00 0.58 0.58 1016.3
20260501235431 5 276 0.0 0.0 0.00 0.58 0.58 83 1016.2
20260501234927 5 276 0.0 0.0 0.00 0.58 0.58 83 1016.2
20260501234424 -17 0.0 0.0 0.00 0.58 0.58 1016.1
20260501233922 -17 0.0 0.0 0.00 0.58 0.58 1016.2
20260501233420 -17 0.0 0.0 0.00 0.58 0.58 1016.3
20260501232915 -17 0.0 0.0 0.00 0.58 0.58 1016.2
20260501232412 -17 0.0 0.0 0.00 0.58 0.58 1016.1
20260501231910 -17 0.0 0.0 0.00 0.58 0.58 1015.9
20260501231408 -17 0.0 0.0 0.00 0.58 0.58 1016.1
20260501230906 -17 0.0 0.0 0.00 0.58 0.58 1016.0
20260501230405 -17 0.0 0.0 0.00 0.58 0.58 1016.2
20260501225901 6 312 0.0 0.0 0.00 0.58 0.58 82 1016.2
20260501225359 6 312 0.0 0.0 0.00 0.58 0.58 82 1016.2
20260501224854 -17 0.0 0.0 0.00 0.58 0.58 1016.3
20260501224352 -17 0.0 0.0 0.00 0.58 0.58 1016.3
20260501223849 -17 0.0 0.0 0.00 0.58 0.58 1016.5
20260501223345 -17 0.0 0.0 0.00 0.58 0.58 1016.2
20260501222840 -17 0.0 0.0 0.00 0.58 0.58 1016.3
20260501222338 6 288 3.2 3.2 0.00 0.58 0.58 80 1016.4
20260501221834 6 288 3.2 3.2 0.00 0.58 0.58 80 1016.1
20260501221331 7 12 1.6 3.2 0.00 0.58 0.58 82 1016.0
20260501220830 -17 0.0 0.0 0.00 0.58 0.58 1015.9
20260501220327 -17 0.0 0.0 0.00 0.58 0.58 1015.9
20260501215824 6 129 3.2 4.8 0.00 0.58 0.58 83 1016.0
20260501215320 6 129 3.2 4.8 0.00 0.58 0.58 83 1015.8
20260501214815 6 110 3.2 6.4 0.00 0.58 0.58 83 1015.8
20260501214311 6 297 3.2 3.2 0.00 0.58 0.58 81 1015.9
20260501213807 6 226 1.6 1.6 0.00 0.58 0.58 83 1016.0
20260501213303 6 307 0.0 0.0 0.00 0.58 0.58 87 1015.8
20260501212759 6 286 0.0 1.6 0.00 0.58 0.58 85 1015.8
20260501212256 6 328 0.0 1.6 0.00 0.58 0.58 86 1015.8
20260501211754 6 323 4.8 4.8 0.00 0.58 0.58 86 1015.7
20260501211250 -17 0.0 0.0 0.00 0.58 0.58 1015.6
20260501210748 6 226 0.0 1.6 0.00 0.58 0.58 91 1015.7
20260501210244 5 219 0.0 0.0 0.00 0.58 0.58 91 1015.5
20260501205740 5 286 1.6 3.2 0.00 0.58 0.58 91 1015.4
20260501205237 5 267 0.0 1.6 0.00 0.58 0.58 91 1015.4
20260501204734 6 79 0.0 0.0 0.00 0.58 0.58 92 1015.4
20260501204231 5 137 0.0 1.6 0.00 0.58 0.58 93 1015.3
20260501203727 5 308 1.6 1.6 0.00 0.58 0.58 93 1015.4
20260501203225 5 221 0.0 6.4 0.00 0.58 0.58 92 1015.2
20260501202721 5 262 1.6 4.8 0.00 0.58 0.58 92 1015.3
20260501202219 5 258 1.6 1.6 0.00 0.58 0.58 93 1015.3
20260501201715 5 313 0.0 0.0 0.00 0.58 0.58 93 1015.2
20260501201212 5 327 1.6 3.2 0.00 0.58 0.58 93 1014.8
20260501200709 5 266 1.6 1.6 0.00 0.58 0.58 93 1014.8
20260501200206 -17 0.0 0.0 0.00 0.58 0.58 1014.8
20260501195703 -17 0.0 0.0 0.00 0.58 0.58 1014.8
20260501195159 5 301 1.6 3.2 0.00 0.58 0.58 94 1014.7
20260501194655 5 301 1.6 3.2 0.00 0.58 0.58 94 1014.7
20260501194150 5 247 0.0 0.0 0.00 0.58 0.58 94 1014.6
20260501193648 5 11 1.6 1.6 0.00 0.58 0.58 94 1014.7
20260501193147 -17 0.0 0.0 0.00 0.58 0.58 1014.5
20260501192643 -17 0.0 0.0 0.00 0.58 0.58 1014.5
20260501192141 -17 0.0 0.0 0.00 0.58 0.58 1014.4
20260501191638 5 293 0.0 1.6 0.00 0.58 0.58 95 1014.5
20260501191135 5 293 0.0 1.6 0.18 0.58 0.58 95 1014.5
20260501190631 5 150 0.0 1.6 0.18 0.58 0.58 95 1014.4
20260501190126 -17 0.0 0.0 0.00 0.00 0.00 1014.4
20260501185623 -17 0.0 0.0 0.00 0.00 0.00 1014.4
20260501185118 -17 0.0 0.0 0.00 0.56 0.56 1014.3
20260501184615 -17 0.0 0.0 0.00 0.56 0.56 1014.2
20260501184109 -17 0.0 0.0 0.00 0.56 0.56 1014.1
20260501183607 -17 0.0 0.0 0.00 0.56 0.56 1014.0
20260501183103 -17 0.0 0.0 0.00 0.56 0.56 1014.2
20260501182600 -17 0.0 0.0 0.00 0.56 0.56 1014.0
20260501182057 -17 0.0 0.0 0.00 0.56 0.56 1014.0
20260501181554 -17 0.0 0.0 0.00 0.56 0.56 1013.9
20260501181050 -17 0.0 0.0 0.00 0.56 0.56 1013.9
20260501180549 -17 0.0 0.0 0.00 0.56 0.56 1013.8
20260501180044 5 274 1.6 1.6 0.00 0.56 0.56 95 1013.9
20260501175541 5 274 1.6 1.6 0.00 0.56 0.56 95 1013.6
20260501175038 5 195 0.0 1.6 0.00 0.56 0.56 95 1013.5
20260501174535 5 17 0.0 3.2 0.00 0.56 0.56 95 1013.6
20260501174033 5 262 0.0 0.0 0.00 0.56 0.56 95 1013.5
20260501173530 5 234 3.2 4.8 0.00 0.56 0.56 95 1013.6
20260501173027 5 293 1.6 1.6 0.00 0.56 0.56 95 1013.4
20260501172522 6 264 3.2 4.8 0.13 0.56 0.56 94 1013.3
20260501172018 6 15 0.0 1.6 0.13 0.56 0.56 95 1013.2
20260501171514 6 205 0.0 0.0 0.00 0.53 0.53 95 1013.1
20260501171011 6 260 0.0 0.0 0.00 0.53 0.53 95 1013.0
20260501170508 6 235 0.0 0.0 0.00 0.53 0.53 94 1013.2
20260501170005 6 235 0.0 0.0 0.18 0.53 0.53 94 1013.1
20260501165503 6 235 0.0 1.6 0.18 0.53 0.53 94 1013.1
20260501165000 6 290 0.0 1.6 0.13 0.51 0.51 94 1013.1
20260501164458 6 308 0.0 0.0 0.30 0.51 0.51 94 1013.2
20260501163954 6 254 0.0 0.0 0.18 0.48 0.48 94 1013.3
20260501163450 6 265 0.0 1.6 0.00 0.46 0.46 93 1013.2
20260501162947 6 234 0.0 1.6 0.00 0.46 0.46 93 1013.1
20260501162443 6 284 1.6 1.6 0.13 0.46 0.46 93 1013.1
20260501161941 6 147 0.0 1.6 0.13 0.46 0.46 93 1013.2
20260501161437 6 278 0.0 1.6 0.00 0.43 0.43 94 1013.0
20260501160934 6 295 0.0 1.6 0.18 0.43 0.43 93 1013.1